• In Hungary
  • List of Countries
  • For 7 days
  • Water Temperature
  • Satellite Maps
  • Weather Map
  • News
  • Weather Widgets
  • user-avatar
    Login

    Hourly Weather Zelenovaha

    Today, 20 June, Wednesday

    Time Temperature Precipitation Wind Pressure Humidity
    00:00 +14°C° 0 mm 4 mps 738 mmHg 88%
    01:00 +13°C° 0 mm 4 mps 738 mmHg 89%
    02:00 +12°C° 0 mm 3 mps 738 mmHg 93%
    03:00 +12°C° 0 mm 3 mps 738 mmHg 91%
    04:00 +12°C° 0 mm 4 mps 738 mmHg 88%
    05:00 +12°C° 0 mm 4 mps 739 mmHg 86%
    06:00 +14°C° 0 mm 4 mps 739 mmHg 76%
    07:00 +15°C° 0 mm 5 mps 739 mmHg 66%
    08:00 +17°C° 0 mm 5 mps 739 mmHg 55%
    09:00 +19°C° 0 mm 5 mps 739 mmHg 51%
    10:00 +20°C° 0 mm 6 mps 739 mmHg 46%
    11:00 +21°C° 0 mm 6 mps 739 mmHg 41%
    12:00 +21°C° 0 mm 6 mps 739 mmHg 41%
    13:00 +22°C° 0 mm 6 mps 739 mmHg 40%
    14:00 +22°C° 0 mm 6 mps 739 mmHg 40%
    15:00 +21°C° 0 mm 6 mps 739 mmHg 42%
    16:00 +21°C° 0 mm 5 mps 739 mmHg 44%
    17:00 +21°C° 0 mm 5 mps 739 mmHg 47%
    18:00 +19°C° 0 mm 4 mps 739 mmHg 53%
    19:00 +18°C° 0 mm 3 mps 739 mmHg 60%
    20:00 +16°C° 0 mm 2 mps 739 mmHg 66%
    21:00 +15°C° 0 mm 2 mps 739 mmHg 69%
    22:00 +13°C° 0 mm 3 mps 739 mmHg 71%
    23:00 +12°C° 0 mm 3 mps 740 mmHg 73%

    Tomorrow, 21 June, Thursday

    Time Temperature Precipitation Wind Pressure Humidity
    00:00 +11°C° 0 mm 3 mps 740 mmHg 74%
    01:00 +11°C° 0 mm 3 mps 740 mmHg 75%
    02:00 +10°C° 0 mm 2 mps 740 mmHg 76%
    03:00 +10°C° 0 mm 3 mps 740 mmHg 75%
    04:00 +11°C° 0 mm 3 mps 740 mmHg 74%
    05:00 +11°C° 0 mm 3 mps 740 mmHg 73%
    06:00 +13°C° 0 mm 3 mps 740 mmHg 70%
    07:00 +15°C° 0 mm 4 mps 740 mmHg 66%
    08:00 +18°C° 0 mm 4 mps 740 mmHg 63%
    09:00 +20°C° 0 mm 5 mps 739 mmHg 61%
    10:00 +21°C° 0 mm 5 mps 739 mmHg 59%
    11:00 +22°C° 0 mm 6 mps 739 mmHg 58%
    12:00 +23°C° 0.1 mm 5 mps 739 mmHg 56%
    13:00 +25°C° 0.1 mm 5 mps 739 mmHg 55%
    14:00 +25°C° 0.1 mm 5 mps 738 mmHg 54%
    15:00 +25°C° 0.1 mm 4 mps 738 mmHg 57%
    16:00 +25°C° 0.1 mm 4 mps 738 mmHg 59%
    17:00 +25°C° 0.1 mm 3 mps 738 mmHg 62%
    18:00 +22°C° 0 mm 3 mps 737 mmHg 68%
    19:00 +21°C° 0 mm 3 mps 737 mmHg 74%
    20:00 +20°C° 0 mm 2 mps 737 mmHg 80%
    21:00 +19°C° 0 mm 3 mps 737 mmHg 83%
    22:00 +18°C° 0 mm 3 mps 737 mmHg 86%
    23:00 +17°C° 0 mm 3 mps 737 mmHg 88%

    Day after tomorrow, 22 June, Friday

    Time Temperature Precipitation Wind Pressure Humidity
    00:00 +17°C° 0 mm 3 mps 737 mmHg 89%
    01:00 +17°C° 0 mm 3 mps 736 mmHg 90%
    02:00 +16°C° 0 mm 3 mps 736 mmHg 91%
    03:00 +17°C° 0 mm 4 mps 735 mmHg 88%
    04:00 +18°C° 0 mm 4 mps 735 mmHg 85%
    05:00 +18°C° 0 mm 4 mps 734 mmHg 82%
    06:00 +20°C° 0 mm 5 mps 734 mmHg 79%
    07:00 +21°C° 0 mm 5 mps 734 mmHg 76%
    08:00 +22°C° 0 mm 6 mps 733 mmHg 73%
    09:00 +22°C° 0.3 mm 6 mps 733 mmHg 77%
    10:00 +22°C° 0.3 mm 6 mps 733 mmHg 81%
    11:00 +23°C° 0.3 mm 6 mps 733 mmHg 85%
    12:00 +21°C° 1 mm 5 mps 733 mmHg 87%
    13:00 +20°C° 1 mm 5 mps 733 mmHg 90%
    14:00 +19°C° 1 mm 5 mps 734 mmHg 93%
    15:00 +18°C° 0.2 mm 4 mps 734 mmHg 93%
    16:00 +16°C° 0.2 mm 3 mps 734 mmHg 93%
    17:00 +15°C° 0.2 mm 2 mps 735 mmHg 94%
    18:00 +14°C° 0 mm 2 mps 735 mmHg 94%
    19:00 +14°C° 0 mm 2 mps 736 mmHg 94%
    20:00 +13°C° 0 mm 2 mps 736 mmHg 94%
    21:00 +13°C° 0 mm 2 mps 736 mmHg 95%
    22:00 +13°C° 0 mm 2 mps 736 mmHg 95%
    23:00 +13°C° 0 mm 2 mps 737 mmHg 95%

    23 June, Saturday

    Time Temperature Precipitation Wind Pressure Humidity
    00:00 +12°C° 0 mm 2 mps 737 mmHg 96%
    01:00 +12°C° 0 mm 2 mps 737 mmHg 96%
    02:00 +12°C° 0 mm 2 mps 737 mmHg 96%
    03:00 +12°C° 0 mm 2 mps 737 mmHg 96%
    04:00 +12°C° 0 mm 2 mps 737 mmHg 96%
    05:00 +12°C° 0 mm 2 mps 737 mmHg 96%
    06:00 +12°C° 0.4 mm 2 mps 738 mmHg 95%
    07:00 +13°C° 0.4 mm 2 mps 738 mmHg 93%
    08:00 +13°C° 0.4 mm 2 mps 738 mmHg 92%
    09:00 +14°C° 0.2 mm 2 mps 738 mmHg 89%
    10:00 +14°C° 0.2 mm 2 mps 738 mmHg 86%
    11:00 +14°C° 0.2 mm 2 mps 738 mmHg 83%
    12:00 +14°C° 0.5 mm 2 mps 738 mmHg 83%
    13:00 +15°C° 0.5 mm 2 mps 738 mmHg 83%
    14:00 +15°C° 0.5 mm 2 mps 738 mmHg 82%
    15:00 +14°C° 0.3 mm 2 mps 738 mmHg 85%
    16:00 +14°C° 0.3 mm 1 mps 738 mmHg 87%
    17:00 +14°C° 0.3 mm 1 mps 738 mmHg 89%
    18:00 +13°C° 0.4 mm 1 mps 738 mmHg 91%
    19:00 +13°C° 0.4 mm 1 mps 738 mmHg 93%
    20:00 +12°C° 0.4 mm 1 mps 738 mmHg 95%
    21:00 +12°C° 0.2 mm 1 mps 738 mmHg 96%
    22:00 +12°C° 0.2 mm 1 mps 737 mmHg 96%
    23:00 +11°C° 0.2 mm 1 mps 737 mmHg 97%

    24 June, Sunday

    Time Temperature Precipitation Wind Pressure Humidity
    00:00 +11°C° 0.2 mm 1 mps 737 mmHg 96%
    01:00 +11°C° 0.2 mm 1 mps 737 mmHg 96%
    02:00 +11°C° 0.2 mm 1 mps 737 mmHg 95%
    03:00 +11°C° 0.1 mm 1 mps 737 mmHg 94%
    04:00 +12°C° 0.1 mm 1 mps 738 mmHg 93%
    05:00 +12°C° 0.1 mm 1 mps 738 mmHg 92%
    06:00 +13°C° 0.1 mm 2 mps 738 mmHg 87%
    07:00 +15°C° 0.1 mm 2 mps 738 mmHg 81%
    08:00 +16°C° 0.1 mm 2 mps 738 mmHg 75%
    09:00 +17°C° 0.2 mm 2 mps 738 mmHg 68%
    10:00 +19°C° 0.2 mm 3 mps 739 mmHg 62%
    11:00 +20°C° 0.2 mm 3 mps 739 mmHg 56%
    12:00 +19°C° 0.5 mm 3 mps 739 mmHg 58%
    13:00 +19°C° 0.5 mm 3 mps 739 mmHg 61%
    14:00 +19°C° 0.5 mm 3 mps 739 mmHg 63%
    15:00 +19°C° 0.4 mm 3 mps 739 mmHg 66%
    16:00 +19°C° 0.4 mm 2 mps 740 mmHg 68%
    17:00 +19°C° 0.4 mm 2 mps 740 mmHg 71%
    18:00 +17°C° 0.1 mm 2 mps 740 mmHg 77%
    19:00 +16°C° 0.1 mm 2 mps 740 mmHg 84%
    20:00 +14°C° 0.1 mm 1 mps 740 mmHg 90%
    21:00 +13°C° 0 mm 1 mps 741 mmHg 92%
    22:00 +13°C° 0 mm 1 mps 741 mmHg 94%
    23:00 +12°C° 0 mm 1 mps 741 mmHg 96%

    25 June, Monday

    Time Temperature Precipitation Wind Pressure Humidity
    00:00 +11°C° 0 mm 1 mps 741 mmHg 96%
    01:00 +11°C° 0 mm 1 mps 741 mmHg 97%
    02:00 +10°C° 0 mm 1 mps 742 mmHg 97%
    03:00 +11°C° 0 mm 1 mps 742 mmHg 97%
    04:00 +10°C° 0 mm 2 mps 742 mmHg 96%
    05:00 +12°C° 0 mm 2 mps 742 mmHg 96%
    06:00 +13°C° 0 mm 2 mps 742 mmHg 89%
    07:00 +15°C° 0 mm 2 mps 743 mmHg 82%
    08:00 +17°C° 0 mm 2 mps 743 mmHg 75%
    09:00 +18°C° 0.2 mm 3 mps 743 mmHg 70%
    10:00 +19°C° 0.2 mm 3 mps 743 mmHg 66%
    11:00 +20°C° 0.2 mm 3 mps 743 mmHg 62%
    12:00 +20°C° 0.5 mm 3 mps 743 mmHg 62%
    13:00 +20°C° 0.5 mm 3 mps 743 mmHg 63%
    14:00 +20°C° 0.5 mm 3 mps 743 mmHg 64%
    15:00 +20°C° 0.4 mm 3 mps 743 mmHg 66%
    16:00 +20°C° 0.4 mm 3 mps 743 mmHg 69%
    17:00 +20°C° 0.4 mm 2 mps 743 mmHg 72%
    18:00 +18°C° 0.3 mm 2 mps 743 mmHg 78%
    19:00 +16°C° 0.3 mm 2 mps 743 mmHg 85%
    20:00 +15°C° 0.3 mm 1 mps 743 mmHg 91%
    21:00 +14°C° 0 mm 1 mps 743 mmHg 93%
    22:00 +13°C° 0 mm 1 mps 743 mmHg 94%
    23:00 +12°C° 0 mm 1 mps 744 mmHg 96%
    Show more